STARLINK-1311

decayed
NORAD ID: 45363 Int'l Des: 2020-019 Owner: SPXS Country: US Constellation: starlink
LEOCIRCULAR
Gruppe

Über STARLINK-1311

Beschreibung wird geladen...

Höhenverlauf

Altitude vs Time

uPlot chart will show altitude changes over time

Zweizeiliger Elementsatz

1 45363U 20019D 20269.17984688 .12645809 12369-4 14683-2 0 9997
2 45363 52.9669 21.1686 0008084 329.3945 96.5453 16.35871284 30751
Epoch: 25. Sept. 2020 • Age: 43595 hours

Aktueller Status

Position data unavailable
Startdatum 18. März 2020
Alter 5.4 years
Verglühungsdatum 25. Sept. 2020
Typ internet

Technische Details

Klassifizierung Payload
Masse 260.00 kg
Trockenmasse 248.00 kg
Gesamtmasse 260.00 kg
Länge 0.20 m
Durchmesser 2.80 m
Spannweite 9.00 m
Form Box + pan
Hersteller SPXS
Bus-Typ Starlink
Phasenstatus Unknown Transfer Status
Besitzer/Staat SPXS/US

Große Konstellationen

Loading constellations...